Showing default

OSCAR 23 (KITSAT 1), 22077

Orbit data source: Space-Track

OSCAR 23 (KITSAT 1), 22077 is a payload satellite owned by KAIST (KR) in LEO that was launched on Mon, 10 Aug 1992 UTC via an ARIANE 42P launch vehicle from the French Guiana (FRGUI). Payload-class satellites include a variety of spacecraft equipped with specific instruments for various scientific and technological missions. These include communications satellites like Starlink; space stations such as the ISS; scientific satellites like the Hubble; Earth observation satellites from companies like Planet Labs, Umbra, and HawkEye 360; GPS; miniature CubeSats for education and research; and military/defense satellites.

Loading next visibility...
Identifier
22077, 1992-052B
Orbit
LEO
Country
Flag of UnknownUnknown / SKOR
Related business
Manufacturer
SSTL
Mission
Non-operational Civil Communications
Bus & Motor
UOSAT, Unknown motor
Mass
48 kg wet, 48 kg dry
Launch date (UTC)
1992-08-10 (33 years ago)
Launch vehicle
ARIANE 42P
Launch site
French Guiana (FRGUI)
Object type
Payload
Rocket body
Debris
Shape & HBR
Hex Poly, 0.3 m
Radar Cross Section
0.353 m², Medium (>0.1 m² and < 1m²)

Expand to show TLE details & history
Last TLE update: 11 hours ago

TLE from 11 hours ago
0 OSCAR 23 (KITSAT 1)
1 22077U 92052B   25341.72796255 -.00000040  00000-0  88194-4 0  9993
2 22077  66.0859 322.2111 0008517 327.8478 206.0433 12.86605532565053
Epoch: 2025-12-07T17:28Z
TLE epoch observation values (Epoch: 2025-12-07T17:28:15.964Z)
Latitude
5.56036°
Longitude
160.94556°
Altitude
1,322.285 km
Speed
7.194 km/s
True Right ascension
09h 18m 59s
True Declination
5° 31' 47"
Sunlit
Object was in daylight at epoch
Visualization orbit readout
Latitude
Unknown
Longitude
Unknown
Altitude
Unknown
Speed
Unknown
Apparent Right ascension
Unknown
Apparent Declination
Unknown
Sunlit
N/A
Visualization observer readout
Local Sidereal Time
03:03:25
Azimuth
Unknown
Elevation
Unknown
Doppler factor
Unknown
Orbital elements
Apogee altitude
1,320.13 km
Perigee altitude
1,307.028 km
Semi-major axis
7,691.716 km
Eccentricity
0.00085
Inclination
66.0859°
RAAN
322.2111°
Arg. of periapsis
327.8478°
True anomaly
206.00049°
Mean anomaly
206.0433°
Eccentric anomaly
206.02189°
Mean motion
3.21742 °/min
Orbital period
111.89 mins
BSTAR
0.000088194
Loading maneuver chart data...
Computing Atmospheric mass density...
Loading historical data...
Loading historical data...
Loading historical data...
Loading historical data...
Loading historical data...
Loading historical data...
Loading historical data...

Documentation

Showing up to 5 results
|